DW2659 Weather Reports


time (UTC)temp
F
wind
direction
speed
knots
gust
knots
rain 1hr
in
rain 24hr
in
rain mn
in
humidity
%
barometer
mb
20260905103903 72 76 0.0 0.0 0.00 0.00 0.00 91 1013.8
20260905103404 72 76 0.0 0.0 0.00 0.00 0.00 91 1013.8
20260905102902 72 76 0.0 0.0 0.00 0.00 0.00 91 1013.8
20260905102403 72 76 0.0 0.0 0.00 0.00 0.00 91 1013.8
20260905101403 73 76 0.0 0.0 0.00 0.00 0.00 91 1013.8
20260905095903 73 76 0.0 0.0 0.00 0.00 0.00 91 1013.6
20260905094902 73 76 0.0 0.0 0.00 0.00 0.00 91 1013.6
20260905094404 73 76 0.0 0.0 0.00 0.00 0.00 91 1013.6
20260905093402 73 76 0.0 0.0 0.00 0.00 0.00 91 1013.7
20260905092904 73 76 0.0 0.0 0.00 0.00 0.00 90 1013.5
20260905092403 73 76 0.0 0.0 0.00 0.00 0.00 91 1013.5
20260905091903 73 76 0.0 0.0 0.00 0.00 0.00 91 1013.5
20260905091404 73 76 0.0 0.0 0.00 0.00 0.00 90 1013.6
20260905085904 73 76 0.0 0.0 0.00 0.00 0.00 90 1013.6
20260905084404 74 76 0.0 0.0 0.00 0.00 0.00 90 1013.7
20260905083903 73 76 0.0 0.9 0.00 0.00 0.00 90 1013.7
20260905082904 74 76 0.0 0.0 0.00 0.00 0.00 90 1013.7
20260905082403 74 76 0.0 0.0 0.00 0.00 0.00 90 1013.7
20260905081903 74 76 0.0 0.9 0.00 0.00 0.00 90 1013.7
20260905081404 74 76 0.0 0.9 0.00 0.00 0.00 89 1013.6
20260905080903 74 76 0.9 0.9 0.00 0.00 0.00 90 1013.6
20260905080402 74 76 0.0 0.9 0.00 0.00 0.00 89 1013.3
20260905075903 74 76 0.0 0.9 0.00 0.00 0.00 90 1013.3
20260905074903 74 76 0.0 0.9 0.00 0.00 0.00 89 1013.3
20260905074403 74 76 0.9 0.9 0.00 0.00 0.00 89 1013.3
20260905073403 74 76 0.0 0.9 0.00 0.00 0.00 88 1013.3
20260905072903 74 76 0.0 0.9 0.00 0.00 0.00 88 1013.3
20260905072404 74 76 0.0 0.9 0.00 0.00 0.00 88 1013.3
20260905071903 74 76 0.0 0.0 0.00 0.00 0.00 87 1013.3
20260905070904 75 76 0.9 0.9 0.00 0.00 0.00 87 1013.5
20260905065903 75 76 0.0 0.9 0.00 0.00 0.00 87 1013.6
20260905065404 75 76 0.9 1.7 0.00 0.00 0.00 87 1013.5
20260905064903 75 76 0.0 0.9 0.00 0.00 0.00 87 1013.8
20260905064403 75 76 0.0 0.9 0.00 0.00 0.00 87 1013.8
20260905063904 75 76 0.0 0.9 0.00 0.00 0.00 86 1013.8
20260905063403 75 76 0.9 0.9 0.00 0.00 0.00 86 1013.8
20260905062902 75 76 0.0 0.9 0.00 0.00 0.00 87 1013.7
20260905062405 75 76 0.0 0.9 0.00 0.00 0.00 87 1013.7
20260905061903 75 76 0.0 0.9 0.00 0.00 0.00 87 1013.7
20260905061403 75 76 0.0 0.0 0.00 0.00 0.00 86 1013.7
20260905060904 75 76 0.0 0.0 0.00 0.00 0.00 86 1013.8
20260905055903 75 76 0.0 0.9 0.00 0.00 0.00 86 1013.7
20260905054903 75 76 0.0 0.9 0.00 0.00 0.00 86 1013.7
20260905054404 75 76 0.0 0.9 0.00 0.00 0.00 86 1013.7
20260905053904 76 76 0.0 0.0 0.00 0.00 0.00 85 1013.8
20260905053403 76 76 0.0 0.9 0.00 0.00 0.00 85 1013.8
20260905052903 76 76 0.0 0.9 0.00 0.00 0.00 85 1013.7
20260905052404 76 76 0.0 0.0 0.00 0.00 0.00 85 1013.7
20260905051403 76 76 0.0 0.0 0.00 0.00 0.00 85 1014.1
20260905050905 76 76 0.0 0.0 0.00 0.00 0.00 85 1014.1
20260905050403 76 76 0.0 0.0 0.00 0.00 0.00 85 1014.1
20260905045903 76 76 0.0 0.0 0.00 0.00 0.00 85 1014.4
20260905045405 76 76 0.0 0.0 0.00 0.00 0.00 84 1014.4
20260905044403 76 76 0.0 0.0 0.00 0.00 0.00 84 1014.4
20260905043905 76 76 0.0 0.0 0.00 0.00 0.00 84 1014.4
20260905043403 76 76 0.0 0.0 0.00 0.00 0.00 84 1014.4
20260905042404 76 76 0.0 0.0 0.00 0.00 0.00 83 1014.4
20260905041403 76 76 0.0 0.9 0.00 0.00 0.00 83 1014.4
20260905040904 77 76 0.0 0.9 0.00 0.00 0.00 82 1014.4
20260905040403 77 76 0.9 1.7 0.00 0.00 0.00 82 1014.4
20260905035903 77 76 0.0 0.9 0.00 0.00 0.00 82 1014.7
20260905034904 77 76 0.0 1.7 0.00 0.00 0.00 81 1014.7
20260905033903 77 76 0.0 0.9 0.00 0.00 0.00 81 1014.7
20260905033404 78 76 0.0 0.0 0.00 0.00 0.00 80 1014.7
20260905032904 78 76 0.0 0.0 0.00 0.00 0.00 80 1014.7
20260905032403 78 76 0.0 0.0 0.00 0.00 0.00 80 1014.7
20260905031904 78 76 0.0 0.0 0.00 0.00 0.00 79 1014.7
20260905030904 78 76 0.0 0.0 0.00 0.00 0.00 79 1015.0
20260905030404 78 76 0.0 0.0 0.00 0.00 0.00 79 1015.0
20260905025903 78 76 0.0 0.0 0.00 0.00 0.00 78 1015.0
20260905025403 78 76 0.0 0.0 0.00 0.00 0.00 79 1015.0
20260905024904 78 76 0.0 0.0 0.00 0.00 0.00 78 1015.0
20260905023903 79 76 0.9 0.9 0.00 0.00 0.00 77 1014.8
20260905023404 79 76 0.9 1.7 0.00 0.00 0.00 76 1014.8
20260905022903 79 76 0.9 1.7 0.00 0.00 0.00 76 1014.8
20260905022403 79 76 0.0 0.0 0.00 0.00 0.00 74 1014.8
20260905021903 79 76 0.0 0.0 0.00 0.00 0.00 75 1014.8
20260905021405 80 76 0.0 0.9 0.00 0.00 0.00 75 1014.7
20260905020904 80 76 0.0 0.9 0.00 0.00 0.00 75 1014.7
20260905020403 80 76 0.9 0.9 0.00 0.00 0.00 74 1014.7
20260905015403 80 76 0.0 0.0 0.00 0.00 0.00 72 1014.7
20260905014903 81 76 0.0 0.0 0.00 0.00 0.00 72 1014.7
20260905014404 81 76 0.0 0.0 0.00 0.00 0.00 71 1014.7
20260905013903 81 76 0.0 0.0 0.00 0.00 0.00 71 1014.7
20260905012905 81 76 0.0 0.0 0.00 0.00 0.00 70 1014.6
20260905012403 82 76 0.0 0.0 0.00 0.00 0.00 70 1014.6
20260905011903 82 76 0.0 0.0 0.00 0.00 0.00 70 1014.6
20260905010904 83 76 0.0 0.0 0.00 0.00 0.00 68 1014.5
20260905005403 84 76 0.0 0.9 0.00 0.00 0.00 67 1014.4
20260905004903 84 76 0.9 0.9 0.00 0.00 0.00 67 1014.4
20260905003904 85 76 0.0 0.0 0.00 0.00 0.00 65 1014.2
20260905003403 85 76 0.0 0.0 0.00 0.00 0.00 65 1014.2
20260905002904 85 76 0.0 0.0 0.00 0.00 0.00 64 1014.2
20260905001903 86 76 0.0 0.9 0.00 0.00 0.00 63 1014.2
20260905001404 86 76 0.9 2.6 0.00 0.00 0.00 62 1014.2
20260905000903 87 160 0.9 2.6 0.00 0.00 0.00 62 1014.2
20260904235904 87 219 0.0 1.7 0.00 0.00 0.00 60 1014.3
20260904235404 88 219 0.9 2.6 0.00 0.00 0.00 58 1014.3
20260904234903 88 219 0.9 1.7 0.00 0.00 0.00 60 1014.3
20260904234404 89 355 0.9 2.6 0.00 0.00 0.00 59 1014.1
20260904233904 90 336 0.9 2.6 0.00 0.00 0.00 57 1014.1
20260904233403 90 211 0.0 1.7 0.00 0.00 0.00 54 1014.1
20260904232904 90 98 0.0 4.3 0.00 0.00 0.00 53 1014.1
20260904232404 90 159 2.6 4.3 0.00 0.00 0.00 52 1014.1
20260904231405 91 105 0.0 2.6 0.00 0.00 0.00 60 1013.7
20260904230903 92 115 0.0 0.0 0.00 0.00 0.00 60 1013.4
20260904230404 92 115 0.0 0.0 0.00 0.00 0.00 57 1013.4
20260904225404 94 115 0.0 0.9 0.00 0.00 0.00 54 1013.4
20260904224405 96 115 0.0 0.9 0.00 0.00 0.00 52 1013.3
20260904223904 96 115 0.0 0.9 0.00 0.00 0.00 52 1013.3
20260904223403 97 115 0.0 0.9 0.00 0.00 0.00 52 1013.3
20260904222403 98 115 0.9 0.9 0.00 0.00 0.00 51 1013.3
20260904221903 100 115 0.0 0.9 0.00 0.00 0.00 47 1013.3
20260904221405 101 115 0.0 0.9 0.00 0.00 0.00 47 1013.2
20260904220904 101 115 0.0 0.9 0.00 0.00 0.00 46 1013.2
20260904220403 102 115 0.9 0.9 0.00 0.00 0.00 46 1013.2
20260904215905 102 115 0.0 0.9 0.00 0.00 0.00 44 1013.2
20260904215403 102 115 0.0 2.6 0.00 0.00 0.00 44 1013.2
20260904214404 102 281 0.0 0.9 0.00 0.00 0.00 46 1013.4
20260904213904 102 281 0.0 0.9 0.00 0.00 0.00 45 1013.4
20260904212905 102 281 0.9 1.7 0.00 0.00 0.00 46 1013.4
20260904212404 102 281 0.9 1.7 0.00 0.00 0.00 48 1013.7
20260904211904 102 281 0.0 1.7 0.00 0.00 0.00 47 1013.7
20260904211405 102 281 0.9 1.7 0.00 0.00 0.00 45 1013.8
20260904210904 102 281 0.9 1.7 0.00 0.00 0.00 42 1013.8
20260904210404 102 266 0.9 2.6 0.00 0.00 0.00 44 1013.8
20260904205904 102 136 0.9 0.9 0.00 0.00 0.00 45 1013.8
20260904205404 102 136 0.9 1.7 0.00 0.00 0.00 45 1013.8
20260904204404 102 136 0.0 1.7 0.00 0.00 0.00 46 1013.9
20260904203904 101 136 0.0 0.9 0.00 0.00 0.00 46 1013.9
20260904203403 101 136 0.9 1.7 0.00 0.00 0.00 46 1013.9
20260904202904 101 132 0.0 1.7 0.00 0.00 0.00 46 1014.6
20260904202404 101 22 0.9 1.7 0.00 0.00 0.00 46 1014.6
20260904201903 100 22 0.9 1.7 0.00 0.00 0.00 47 1014.6
20260904201405 100 22 0.9 2.6 0.00 0.00 0.00 48 1014.6
20260904200904 99 331 0.0 1.7 0.00 0.00 0.00 48 1014.6
20260904200404 99 319 0.9 1.7 0.00 0.00 0.00 47 1014.6
20260904195905 100 345 0.9 1.7 0.00 0.00 0.00 46 1014.6
20260904195404 100 299 0.9 1.7 0.00 0.00 0.00 46 1014.6
20260904194904 99 179 2.6 5.2 0.00 0.00 0.00 44 1014.6
20260904194404 99 211 1.7 5.2 0.00 0.00 0.00 46 1014.8
20260904193904 99 260 0.9 2.6 0.00 0.00 0.00 46 1014.8
20260904192404 98 55 0.0 0.9 0.00 0.00 0.00 48 1015.5
20260904191903 97 55 0.9 2.6 0.00 0.00 0.00 48 1015.5
20260904191405 96 12 0.9 1.7 0.00 0.00 0.00 55 1015.5
20260904190904 96 12 0.0 0.9 0.00 0.00 0.00 54 1015.5
20260904190403 97 12 0.0 1.7 0.00 0.00 0.00 51 1015.5
20260904185905 97 12 0.9 1.7 0.00 0.00 0.00 50 1015.6
20260904185404 98 16 1.7 2.6 0.00 0.00 0.00 48 1015.6
20260904184904 97 25 0.9 2.6 0.00 0.00 0.00 50 1015.6
20260904184404 97 29 0.0 1.7 0.00 0.00 0.00 51 1015.9
20260904183404 97 26 1.7 2.6 0.00 0.00 0.00 49 1015.9
20260904182905 97 26 1.7 2.6 0.00 0.00 0.00 50 1016.2
20260904182404 97 10 1.7 2.6 0.00 0.00 0.00 49 1016.2
20260904181903 97 18 1.7 2.6 0.00 0.00 0.00 50 1016.2
20260904181403 96 26 1.7 4.3 0.00 0.00 0.00 52 1016.2
20260904180905 97 62 2.6 2.6 0.00 0.00 0.00 49 1016.2
20260904180404 97 121 1.7 2.6 0.00 0.00 0.00 49 1016.2
20260904175405 97 122 2.6 6.1 0.00 0.00 0.00 50 1016.7
20260904174403 96 346 0.9 1.7 0.00 0.00 0.00 51 1016.7
20260904173905 95 277 0.9 2.6 0.00 0.00 0.00 51 1016.7
20260904173404 96 189 1.7 2.6 0.00 0.00 0.00 50 1016.7
20260904172904 96 220 1.7 2.6 0.00 0.00 0.00 49 1016.7
20260904172405 96 120 2.6 4.3 0.00 0.00 0.00 49 1016.7
20260904171904 96 51 1.7 2.6 0.00 0.00 0.00 51 1016.7
20260904171404 96 53 1.7 2.6 0.00 0.00 0.00 52 1016.8
20260904170905 96 23 0.9 4.3 0.00 0.00 0.00 51 1017.1
20260904170403 96 74 0.9 2.6 0.00 0.00 0.00 52 1017.1
20260904165904 95 355 0.9 2.6 0.00 0.00 0.00 54 1017.2
20260904164904 95 358 1.7 2.6 0.00 0.00 0.00 54 1017.2
20260904163905 94 355 1.7 2.6 0.00 0.00 0.00 54 1017.3
20260904163404 94 23 0.9 2.6 0.00 0.00 0.00 55 1017.3
20260904162904 94 13 0.9 4.3 0.00 0.00 0.00 55 1017.5
20260904162404 94 256 2.6 4.3 0.00 0.00 0.00 53 1017.5
20260904161904 94 10 1.7 2.6 0.00 0.00 0.00 56 1017.5
20260904161402 94 119 1.7 2.6 0.00 0.00 0.00 54 1017.5
20260904160903 93 68 0.9 2.6 0.00 0.00 0.00 58 1017.5
20260904160402 93 153 1.7 2.6 0.00 0.00 0.00 56 1017.5
20260904155903 93 87 1.7 2.6 0.00 0.00 0.00 54 1017.6
20260904155404 93 97 1.7 2.6 0.00 0.00 0.00 55 1017.6
20260904154902 92 355 0.9 2.6 0.00 0.00 0.00 55 1017.6
20260904154402 91 259 1.7 2.6 0.00 0.00 0.00 57 1017.6
20260904153402 91 103 2.6 5.2 0.00 0.00 0.00 57 1017.6
20260904151902 89 44 0.9 2.6 0.00 0.00 0.00 64 1017.7
20260904150403 89 97 3.5 6.1 0.00 0.00 0.00 62 1017.5
20260904145902 89 249 2.6 5.2 0.00 0.00 0.00 61 1017.4
20260904145403 89 249 0.9 1.7 0.00 0.00 0.00 63 1017.4
20260904144903 89 131 3.5 5.2 0.00 0.00 0.00 63 1017.4
20260904144402 88 105 2.6 4.3 0.00 0.00 0.00 63 1017.4
20260904143904 88 180 2.6 5.2 0.00 0.00 0.00 64 1017.4
20260904143403 88 115 1.7 4.3 0.00 0.00 0.00 64 1017.4
20260904142902 88 129 2.6 5.2 0.00 0.00 0.00 64 1017.5
20260904142402 87 134 3.5 5.2 0.00 0.00 0.00 64 1017.5
20260904141903 87 113 2.6 5.2 0.00 0.00 0.00 66 1017.5
20260904141402 87 130 3.5 5.2 0.00 0.00 0.00 65 1017.3
20260904140404 87 210 3.5 4.3 0.00 0.00 0.00 64 1017.3
20260904135903 87 144 1.7 4.3 0.00 0.00 0.00 67 1017.5
20260904134904 86 136 1.7 5.2 0.00 0.00 0.00 68 1017.3
20260904134402 85 180 1.7 4.3 0.00 0.00 0.00 68 1017.5
20260904133903 85 125 1.7 5.2 0.00 0.00 0.00 70 1017.5
20260904133404 84 120 1.7 4.3 0.00 0.00 0.00 71 1017.5
20260904132902 84 184 2.6 5.2 0.00 0.00 0.00 71 1017.4
20260904132402 83 141 0.9 4.3 0.00 0.00 0.00 74 1017.4
20260904131904 82 140 0.9 4.3 0.00 0.00 0.00 75 1017.4
20260904131402 81 163 2.6 4.3 0.00 0.00 0.00 78 1017.6
20260904130902 80 226 0.9 4.3 0.00 0.00 0.00 81 1017.6
20260904130404 79 230 2.6 4.3 0.00 0.00 0.00 81 1017.6
20260904125902 78 168 0.9 2.6 0.00 0.00 0.00 85 1017.4
20260904125402 77 205 0.0 1.7 0.00 0.00 0.00 87 1017.4
20260904124904 77 196 1.7 2.6 0.00 0.00 0.00 88 1017.4
20260904124402 76 240 1.7 2.6 0.00 0.00 0.00 91 1017.4
20260904123404 74 355 0.9 0.9 0.00 0.00 0.00 94 1017.2
20260904122903 74 355 0.0 0.9 0.00 0.00 0.00 94 1017.2
20260904121904 74 355 0.0 0.0 0.00 0.00 0.00 93 1017.2
20260904120903 73 355 0.0 0.0 0.00 0.00 0.00 93 1017.3
20260904120404 73 355 0.0 0.0 0.00 0.00 0.00 93 1017.3
20260904115402 73 355 0.0 0.0 0.00 0.00 0.00 93 1017.1
20260904114403 73 355 0.0 0.0 0.00 0.00 0.00 93 1017.0
20260904113903 73 355 0.0 0.0 0.00 0.00 0.00 93 1017.0
20260904113404 73 355 0.0 0.0 0.00 0.00 0.00 93 1017.0
20260904112903 73 355 0.0 0.0 0.00 0.00 0.00 93 1017.0
20260904112403 73 355 0.0 0.0 0.00 0.00 0.00 92 1016.8
20260904111904 73 355 0.0 0.0 0.00 0.00 0.00 92 1016.8
20260904111403 73 355 0.0 0.0 0.00 0.00 0.00 92 1016.8
20260904110903 73 355 0.0 0.0 0.00 0.00 0.00 92 1016.5
20260904105904 73 355 0.0 0.0 0.00 0.00 0.00 92 1016.5
20260904105402 73 355 0.0 0.0 0.00 0.00 0.00 92 1016.5
20260904104903 73 355 0.0 0.0 0.00 0.00 0.00 92 1016.5
20260904104404 73 355 0.0 0.0 0.00 0.00 0.00 92 1016.5